| time (UTC) | temp C | wind direction | speed KPH | gust KPH | rain 1hr cm | rain 24hr cm | rain mn cm | humidity % | barometer mb |
| 20260506122531 | 24 | 65 | 6.4 | 12.9 | 0.00 | 0.00 | 0.00 | 45 | 1003.6 |
| 20260506115531 | 23 | 83 | 6.4 | 19.3 | 0.00 | 0.00 | 0.00 | 47 | 1003.9 |
| 20260506112532 | 23 | 173 | 8.0 | 17.7 | 0.00 | 0.00 | 0.00 | 45 | 1004.3 |
| 20260506105532 | 22 | 189 | 4.8 | 16.1 | 0.00 | 0.00 | 0.00 | 43 | 1004.5 |
| 20260506102532 | 22 | 143 | 3.2 | 11.3 | 0.00 | 0.00 | 0.00 | 46 | 1004.7 |
| 20260506092532 | 21 | 127 | 3.2 | 9.7 | 0.00 | 0.00 | 0.00 | 51 | 1005.1 |
| 20260506085532 | 21 | 137 | 3.2 | 8.0 | 0.00 | 0.00 | 0.00 | 54 | 1005.3 |
| 20260506082532 | 20 | 148 | 3.2 | 11.3 | 0.00 | 0.00 | 0.00 | 55 | 1005.7 |
| 20260506072532 | 18 | 136 | 1.6 | 6.4 | 0.00 | 0.00 | 0.00 | 62 | 1006.1 |
| 20260506042533 | 10 | 245 | 0.0 | 4.8 | 0.00 | 0.00 | 0.00 | 86 | 1006.5 |
| 20260506035533 | 10 | 279 | 0.0 | 0.0 | 0.00 | 0.00 | 0.00 | 85 | 1006.1 |
| 20260506032533 | 10 | 279 | 0.0 | 3.2 | 0.00 | 0.00 | 0.00 | 84 | 1005.6 |
| 20260506025535 | 11 | 279 | 0.0 | 0.0 | 0.00 | 0.00 | 0.00 | 83 | 1005.8 |
| 20260506025533 | 11 | 279 | 0.0 | 0.0 | 0.00 | 0.00 | 0.00 | 83 | 1005.8 |
| 20260506022533 | 11 | 279 | 0.0 | 0.0 | 0.00 | 0.00 | 0.00 | 82 | 1006.0 |
| 20260506015533 | 12 | 279 | 0.0 | 0.0 | 0.00 | 0.00 | 0.00 | 82 | 1006.0 |
| 20260506012533 | 12 | 276 | 0.0 | 1.6 | 0.00 | 0.00 | 0.00 | 82 | 1005.9 |
| 20260506005533 | 12 | 281 | 3.2 | 9.7 | 0.00 | 0.00 | 0.00 | 81 | 1006.0 |
| 20260506002533 | 13 | 279 | 1.6 | 8.0 | 0.00 | 0.00 | 0.00 | 81 | 1005.8 |
| 20260505235534 | 14 | 327 | 4.8 | 11.3 | 0.00 | 0.00 | 0.00 | 78 | 1005.4 |
| 20260505232534 | 15 | 274 | 4.8 | 12.9 | 0.00 | 0.00 | 0.00 | 74 | 1005.0 |
| 20260505225534 | 15 | 319 | 4.8 | 11.3 | 0.00 | 0.00 | 0.00 | 70 | 1004.6 |
| 20260505222534 | 16 | 294 | 14.5 | 27.4 | 0.00 | 0.00 | 0.00 | 67 | 1004.7 |
| 20260505215534 | 17 | 327 | 9.7 | 22.5 | 0.00 | 0.00 | 0.00 | 63 | 1004.0 |
| 20260505212534 | 17 | 277 | 14.5 | 25.7 | 0.00 | 0.00 | 0.00 | 62 | 1003.9 |
| 20260505205534 | 18 | 327 | 14.5 | 27.4 | 0.00 | 0.00 | 0.00 | 59 | 1003.7 |
| 20260505202534 | 18 | 326 | 11.3 | 24.1 | 0.00 | 0.00 | 0.00 | 55 | 1003.3 |
| 20260505195534 | 18 | 122 | 0.0 | 0.0 | 0.00 | 0.00 | 0.00 | 57 | 1002.4 |
| 20260505192534 | 19 | 111 | 0.0 | 1.6 | 0.00 | 0.00 | 0.00 | 57 | 1001.9 |
| 20260505185535 | 20 | 133 | 0.0 | 0.0 | 0.00 | 0.00 | 0.00 | 54 | 1001.8 |
| 20260505182535 | 21 | 133 | 0.0 | 0.0 | 0.00 | 0.00 | 0.00 | 52 | 1001.5 |
| 20260505175535 | 22 | 133 | 0.0 | 1.6 | 0.00 | 0.00 | 0.00 | 49 | 1001.6 |
| 20260505172535 | 23 | 133 | 0.0 | 0.0 | 0.00 | 0.00 | 0.00 | 43 | 1001.7 |
| 20260505165535 | 23 | 162 | 0.0 | 1.6 | 0.00 | 0.00 | 0.00 | 38 | 1001.8 |
| 20260505162536 | 25 | 194 | 1.6 | 4.8 | 0.00 | 0.00 | 0.00 | 34 | 1002.0 |
| 20260505152535 | 26 | 125 | 4.8 | 11.3 | 0.00 | 0.00 | 0.00 | 33 | 1002.6 |